Regional Weather Roundup
Issued by NWS

Home | Current Version | Previous Version | Text Only | Print | Product List | Glossary Off
Versions: 1 2 3 4 5 6 7 8 9 10 11 12 13 14 15 16 17 18 19 20 21 22 23 24 25 26 27 28 29 30 31 32 33 34 35 36 37 38 39 40 41 42 43 44 45 46 47 48 49 50

000
ASUS43 KLSX 022207
RWRMO

WEATHER SUMMARY FOR MISSOURI
NATIONAL WEATHER SERVICE SPRINGFIELD MO
500 PM CDT SUN AUG 02 2015

NOTE: "FAIR" INDICATES FEW OR NO CLOUDS BELOW 12,000 FEET WITH NO
       SIGNIFICANT WEATHER AND/OR OBSTRUCTIONS TO VISIBILITY.
       CURRENT SKY AND/OR WEATHER CONDITIONS ARE NOT AVAILABLE FOR
       CHILLICOTHE AND FARMINGTON.

MOZ001>031-035>038-043-044-053-054-022300-
...NORTHERN AND WESTERN MISSOURI...

CITY           SKY/WX    TMP DP  RH WIND       PRES   REMARKS
KANSAS CTY INT SUNNY     89  71  55 SW15      29.85F HX  95
KANSAS C DTWN  SUNNY     93  68  43 SW14      29.84F HX  97
LEE`S SUMMIT   SUNNY     92  64  39 SW13      29.87F HX  93
ST JOSEPH      SUNNY     89  74  60 SW12      29.84S HX  98
CHILLICOTHE      N/A     91  72  53 SW7       29.85S HX  98
KIRKSVILLE     SUNNY     89  71  55 SW15G21   29.84F HX  95

$$
MOZ066>068-077>081-088>096-101>105-022300-
...SOUTHWEST MISSOURI...

CITY           SKY/WX    TMP DP  RH WIND       PRES   REMARKS
SPRINGFIELD    MOSUNNY   91  63  39 SW12      29.93F HX  92
JOPLIN         SUNNY     94  57  28 SW16G25   29.92F HX  92

$$
MOZ032>034-039>042-045>050-055>058-069>072-022300-
...CENTRAL MISSOURI...

CITY           SKY/WX    TMP DP  RH WIND       PRES   REMARKS
COLUMBIA       SUNNY     89  69  51 SW12      29.89F HX  93
JEFFERSON CITY MOSUNNY   91  65  41 W10       29.87F HX  93
ROLLA          SUNNY     90  65  43 W10       29.90F HX  92
SEDALIA        MOSUNNY   91  66  43 W10G21    29.89F HX  93
WHITEMAN AFB   SUNNY     93  65  40 W9        29.86F HX  95
WARRENSBURG    SUNNY     91  63  38 SW13      29.87F HX  92
OSAGE BEACH    SUNNY     91  64  40 W8        29.91S HX  93

$$
MOZ051-052-059>065-022300-
...EAST CENTRAL MISSOURI...

CITY           SKY/WX    TMP DP  RH WIND       PRES   REMARKS
ST LOUIS INTL  PTSUNNY   94  67  41 SW15      29.87F HX  97
SPIRIT OF STL  MOSUNNY   92  70  48 W9        29.85F HX  97
ST CHARLES     SUNNY     94  67  41 W15       29.85F HX  97

$$
MOZ072>076-082>087-097>100-106>115-022300-
...SOUTH CENTRAL AND SOUTHEAST MISSOURI...

CITY           SKY/WX    TMP DP  RH WIND       PRES   REMARKS
CAPE GIRARDEAU MOSUNNY   89  72  56 S7        29.90S HX  96
FARMINGTON     SUNNY     90  66  45 SW8       29.95S HX  92
POPLAR BLUFF   SUNNY     90  70  51 SW8       29.89F HX  95
WEST PLAINS    MOSUNNY   90  65  43 SW7       29.96S HX  92

$$


USA.gov is the U.S. government's official web portal to all federal, state and local government web resources and services.